TimeCDT,TemperatureF,Dew PointF,Humidity,Sea Level PressureIn,VisibilityMPH,Wind Direction,Wind SpeedMPH,Gust SpeedMPH,PrecipitationIn,Events,Conditions,WindDirDegrees,DateUTC
12:54 AM,57.9,52.0,81,30.00,10.0,North,6.9,-,N/A,,Clear,10,2013-09-03 05:54:00
1:54 AM,55.9,51.1,84,30.01,10.0,NNE,5.8,-,N/A,,Clear,20,2013-09-03 06:54:00
2:54 AM,55.0,51.1,86,30.01,10.0,NNE,5.8,-,N/A,,Clear,30,2013-09-03 07:54:00
3:54 AM,53.1,51.1,93,30.02,10.0,NNE,6.9,-,N/A,,Clear,30,2013-09-03 08:54:00
4:54 AM,53.1,50.0,89,30.03,10.0,NNE,4.6,-,N/A,,Clear,30,2013-09-03 09:54:00
5:54 AM,52.0,48.9,89,30.05,10.0,NNE,5.8,-,N/A,,Clear,30,2013-09-03 10:54:00
6:54 AM,52.0,50.0,93,30.07,10.0,NNE,5.8,-,N/A,,Clear,30,2013-09-03 11:54:00
7:54 AM,57.0,53.1,87,30.09,10.0,NNE,5.8,-,N/A,,Clear,30,2013-09-03 12:54:00
8:54 AM,63.0,55.9,78,30.09,10.0,NE,3.5,-,N/A,,Clear,40,2013-09-03 13:54:00
9:54 AM,68.0,57.0,68,30.10,10.0,Calm,Calm,-,N/A,,Clear,0,2013-09-03 14:54:00
10:54 AM,71.1,55.0,57,30.10,10.0,East,3.5,-,N/A,,Clear,90,2013-09-03 15:54:00
11:54 AM,73.9,53.1,48,30.10,10.0,Calm,Calm,-,N/A,,Clear,0,2013-09-03 16:54:00
12:54 PM,77.0,53.1,43,30.08,10.0,Variable,3.5,-,N/A,,Clear,0,2013-09-03 17:54:00
1:54 PM,75.9,50.0,40,30.07,10.0,Calm,Calm,-,N/A,,Clear,0,2013-09-03 18:54:00
2:54 PM,79.0,50.0,36,30.05,10.0,Calm,Calm,-,N/A,,Clear,0,2013-09-03 19:54:00
3:54 PM,80.1,50.0,35,30.03,10.0,North,4.6,-,N/A,,Clear,10,2013-09-03 20:54:00
4:54 PM,81.0,46.0,29,30.03,10.0,Variable,4.6,-,N/A,,Clear,0,2013-09-03 21:54:00
5:54 PM,80.1,43.0,27,30.03,10.0,Calm,Calm,-,N/A,,Clear,0,2013-09-03 22:54:00
6:54 PM,79.0,46.9,32,30.02,10.0,NE,3.5,-,N/A,,Clear,40,2013-09-03 23:54:00
7:54 PM,73.0,50.0,44,30.03,10.0,Calm,Calm,-,N/A,,Clear,0,2013-09-04 00:54:00
8:54 PM,70.0,48.9,47,30.03,10.0,Calm,Calm,-,N/A,,Clear,0,2013-09-04 01:54:00
9:54 PM,69.1,51.1,53,30.04,10.0,Calm,Calm,-,N/A,,Clear,0,2013-09-04 02:54:00
10:54 PM,62.1,52.0,70,30.04,10.0,ENE,3.5,-,N/A,,Clear,70,2013-09-04 03:54:00
11:54 PM,66.0,54.0,65,30.05,10.0,East,3.5,-,N/A,,Clear,100,2013-09-04 04:54:00